Theta_e
329 327 324 327 329 329 330 330 331 334 336 337 342 343 344 345 345 343 343 343 343 343 341 341 342 345 350 352 351 351 350 349 347
328 329 329 323 329 330 331 332 333 336 338 339 342 343 344 343 344 343 342 344 345 343 343 342 343 345 347 350 354 351 351 349 348
327 329 326 326 328 330 333 335 338 339 339 340 341 343 343 343 343 344 344 345 343 343 343 342 343 346 349 350 352 352 350 350 351
326 327 327 330 333 336 337 338 338 339 340 340 340 342 343 343 343 343 344 345 345 344 345 344 344 347 348 350 351 351 350 349 351
327 329 329 331 334 335 336 336 335 337 339 340 340 341 342 344 344 346 346 346 347 347 345 347 347 347 347 350 351 351 350 348 351
326 327 328 329 329 327 328 330 333 333 339 340 341 342 342 342 341 342 344 347 350 351 349 348 349 348 346 346 348 349 349 350 350
326 325 326 326 326 326 327 330 331 331 334 342 343 344 344 344 345 344 346 350 350 350 351 351 350 349 349 348 348 349 349 349 349
326 325 326 324 326 328 329 330 332 332 333 336 345 345 338 333 342 347 339 335 335 335 335 339 345 351 350 349 349 350 349 349 348
325 326 329 330 331 331 330 330 331 333 333 333 336 337 338 343 350 342 337 333 333 332 333 335 335 335 347 348 349 344 343 349 350
326 331 331 331 331 328 329 332 334 334 336 337 336 337 338 339 346 344 337 334 334 334 334 334 332 334 338 344 347 339 339 344 351
327 328 329 332 333 335 336 338 338 337 338 336 336 336 337 340 337 336 336 332 333 334 335 333 331 333 336 339 347 337 335 340 349
325 327 328 333 335 335 334 335 337 332 335 334 336 336 337 335 335 334 334 333 334 333 330 331 332 333 336 336 340 333 331 335 346
325 325 325 330 334 335 332 331 332 331 330 330 330 332 336 339 337 334 332 332 331 329 328 331 332 333 336 334 338 337 326 333 338
322 321 320 323 331 331 330 330 328 327 325 324 327 330 332 336 336 335 336 334 331 330 327 325 328 330 331 335 337 340 324 325 336
317 318 320 323 321 320 322 327 327 323 321 324 325 328 329 331 333 337 337 333 332 331 328 326 327 329 329 331 333 327 323 324 326
317 318 318 318 316 314 314 316 319 318 318 320 323 323 324 327 331 333 335 336 333 331 332 331 331 330 329 333 340 337 321 318 320
315 316 315 314 312 313 314 316 317 317 317 319 320 320 321 323 325 327 329 329 329 332 335 335 336 334 334 335 334 334 338 333 332
314 313 314 314 314 314 314 314 315 315 316 316 315 315 316 318 321 323 324 325 326 327 330 331 334 334 335 333 332 333 325 331 337
311 312 314 315 314 313 313 314 314 314 315 314 312 311 313 314 316 317 318 322 325 317 313 310 307 306 311 329 321 316 310 309 309
313 315 314 314 313 313 312 312 312 313 314 314 313 312 313 314 313 314 314 316 318 318 320 312 308 305 304 305 308 302 303 303 304
Wind_Speed
6 8 16 19 21 19 19 20 18 14 12 13 14 13 15 13 12 8 8 7 6 5 6 7 7 8 7 7 7 7 7 6 5
7 7 4 11 14 17 16 13 14 16 14 14 13 15 11 10 10 9 9 8 5 5 4 5 5 7 9 7 7 8 8 6 8
7 7 8 2 4 8 6 8 7 10 11 14 13 11 11 10 11 10 9 5 8 8 6 5 5 5 6 7 8 7 9 7 6
3 5 6 5 5 6 8 8 12 12 10 10 6 9 9 10 10 10 8 9 8 10 6 7 8 6 6 7 8 8 8 8 8
3 4 6 6 6 5 4 4 6 0 6 4 5 6 4 1 5 4 6 8 9 8 10 7 9 9 9 9 9 8 10 9 8
4 6 6 6 7 6 6 5 5 6 4 9 9 10 10 10 10 8 9 8 2 2 5 7 7 7 9 10 11 10 10 11 11
2 5 6 4 4 3 2 2 6 6 3 5 7 9 9 9 11 10 5 4 4 3 3 7 8 10 10 10 10 11 11 11 11
4 3 6 3 3 3 2 3 4 4 2 2 5 7 6 3 4 9 10 11 10 8 10 9 11 10 10 10 10 9 12 12 12
4 3 3 2 2 4 5 5 4 3 3 4 4 5 5 1 6 9 8 10 10 9 7 6 5 5 15 12 10 15 18 15 12
4 6 6 6 3 5 5 5 3 3 2 1 5 4 6 6 8 11 14 12 9 8 9 9 3 11 8 9 13 16 18 20 12
6 5 4 3 3 3 2 2 1 1 2 4 3 3 5 4 2 3 2 3 7 11 11 6 9 7 9 5 10 17 18 20 13
3 3 3 2 2 3 5 5 4 3 2 3 1 2 5 5 6 6 5 7 9 7 5 6 5 8 6 3 12 12 17 15 13
2 3 2 3 3 4 6 5 5 4 4 2 3 3 5 8 8 8 8 9 6 4 6 9 6 4 1 3 11 23 10 11 7
2 2 4 5 2 3 5 5 6 7 6 9 7 4 2 4 7 11 11 8 6 6 8 5 5 5 6 10 15 14 12 13 7
4 3 5 5 5 5 6 6 5 6 7 7 8 7 7 8 7 4 5 7 6 8 8 9 10 10 9 10 14 17 18 22 20
2 2 2 2 2 3 5 7 7 7 6 7 8 9 5 3 6 6 4 4 4 5 8 8 10 9 10 10 6 7 17 19 19
3 2 2 4 6 7 6 4 3 2 5 4 3 4 8 8 4 5 6 4 4 6 4 5 6 8 9 9 6 4 3 6 7
4 2 2 3 4 5 7 8 9 6 6 6 7 6 4 6 6 5 5 5 5 5 6 6 5 5 6 4 4 7 7 6 5
4 3 1 3 4 6 8 9 10 10 7 5 6 9 7 6 5 6 6 6 6 9 11 12 9 10 6 6 11 11 14 14 12
5 4 3 1 4 5 6 7 9 10 8 7 6 6 8 7 6 5 6 7 6 6 6 11 10 9 8 10 13 9 12 9 12
Wind_Direction
185 221 230 221 210 203 207 203 198 196 191 194 187 193 204 203 207 201 212 201 198 211 209 213 189 203 207 199 190 189 183 188 191
316 296 281 212 201 204 203 199 191 188 189 194 187 195 201 205 200 201 205 198 192 205 216 221 207 196 208 205 203 198 187 195 193
295 322 343 345 184 180 142 163 171 182 189 194 193 193 197 205 201 201 208 176 204 211 213 192 205 232 210 204 201 200 197 193 195
13 3 10 31 63 107 142 155 183 189 191 183 189 183 197 200 206 201 190 197 206 215 202 185 194 188 228 216 208 204 204 205 201
356 50 31 46 65 80 101 68 58 74 138 140 133 132 144 268 317 259 201 216 213 200 217 205 200 182 200 205 211 201 206 210 208
327 69 62 57 51 45 53 71 63 41 162 161 155 166 171 176 180 193 214 221 263 258 239 231 224 189 203 212 214 206 204 207 203
76 77 72 32 44 54 18 107 121 119 107 175 182 175 179 181 192 187 152 100 54 11 287 252 228 230 224 217 218 211 214 208 206
108 57 75 81 308 308 283 277 108 114 106 202 204 204 226 305 170 137 120 123 133 119 92 66 354 285 251 227 207 212 209 209 201
144 135 28 84 296 312 307 282 282 215 200 252 302 271 262 150 157 138 156 153 151 140 145 130 102 338 303 257 226 211 206 201 203
114 57 47 41 360 298 291 284 275 352 357 15 280 272 263 252 225 187 193 192 189 198 200 190 244 238 224 271 256 229 205 203 207
125 109 62 21 329 329 355 326 216 355 109 158 205 305 296 292 271 209 182 195 238 245 244 232 260 214 218 235 263 237 219 214 211
178 172 172 273 315 321 331 6 18 1 9 39 63 148 196 214 219 211 197 224 243 268 267 263 232 224 201 269 278 235 227 203 210
238 257 244 264 303 345 337 335 4 31 63 148 168 237 223 198 198 212 219 223 238 230 229 229 216 223 326 255 280 258 228 203 189
208 266 323 6 35 349 329 344 10 15 6 6 337 310 282 219 215 225 226 227 213 235 227 214 213 224 230 217 232 257 196 207 215
155 120 38 40 53 35 10 18 32 22 15 339 333 346 345 330 312 268 230 230 210 211 227 252 259 263 252 244 236 207 201 204 203
186 99 106 79 45 16 21 20 21 6 338 348 339 332 340 305 313 318 314 278 238 215 212 226 246 245 252 250 231 220 194 195 206
172 140 41 12 9 355 335 347 335 290 317 327 352 336 328 334 319 307 308 310 283 272 236 227 248 257 250 254 244 220 208 219 201
176 148 42 32 12 338 317 331 332 338 340 349 341 334 314 309 317 307 280 269 264 245 257 244 240 230 229 225 265 269 260 206 203
159 145 61 1 337 325 318 327 322 325 338 350 330 335 327 308 297 305 305 292 284 254 248 266 265 261 232 268 260 241 219 222 237
138 154 166 224 289 299 307 306 308 308 314 331 325 305 312 311 294 293 296 299 278 268 301 302 286 262 265 249 260 319 274 240 220